Theta_e
285 285 284 284 284 284 284 284 283 283 283 283 283 283 283 283 283 283 283 283 283 283 283 283 283 283 282 282 282 282 282 282 282 282 282 282 283 283 283 283 283 283 283 283 284 284 284 284 284 284 284 284 285 285 285 285 286 287 287 288 288 289 290 293 296 297 297 298 298 299 299 303 310 318 323 324 324 324 324 324 324 324 324 324 324
286 286 285 285 284 284 284 284 284 284 284 283 283 283 283 283 283 283 283 283 283 283 283 283 282 282 282 282 282 282 282 282 282 282 282 282 282 282 282 282 282 283 283 283 283 283 283 283 283 284 284 284 284 284 285 285 285 286 286 286 287 287 289 291 294 296 297 296 296 296 297 298 302 309 316 321 323 324 324 324 325 324 324 324 324
286 286 286 286 285 285 284 284 284 284 284 284 283 283 283 283 283 283 283 283 283 283 283 283 282 282 282 282 282 282 282 282 282 282 282 282 282 282 282 282 282 282 282 283 283 283 283 283 283 283 283 283 284 284 284 284 285 285 285 285 286 286 288 290 292 294 295 295 295 295 296 297 299 302 307 314 319 322 323 324 324 325 324 324 324
287 286 286 286 286 285 285 284 284 284 284 284 284 283 283 283 283 283 283 283 283 283 283 283 283 282 282 282 282 282 282 282 282 282 281 281 281 281 281 282 282 282 282 282 282 282 282 282 283 283 283 283 283 283 284 284 284 284 285 285 285 286 287 288 290 292 293 294 294 294 295 296 297 299 302 308 314 319 322 323 324 324 324 324 324
287 287 287 287 287 287 286 286 285 284 284 284 284 284 283 283 283 283 283 283 283 283 283 283 283 283 283 283 283 282 282 282 282 282 281 281 281 281 281 281 281 282 282 282 282 282 282 282 282 282 282 283 283 283 283 283 284 284 284 284 284 285 286 287 288 289 291 293 293 293 294 295 296 297 299 303 309 315 319 321 323 324 324 324 324
287 288 288 288 288 287 287 287 286 285 284 283 283 283 283 283 283 283 283 283 283 283 283 283 283 283 283 283 283 282 282 282 282 281 281 281 281 281 281 281 281 282 282 282 282 282 282 282 282 282 282 282 282 283 283 283 283 283 283 284 284 285 286 287 287 288 290 291 292 292 293 294 295 295 296 299 304 309 315 318 321 323 323 323 323
288 288 288 288 287 287 287 287 286 285 284 283 283 283 283 283 283 283 283 283 283 283 283 283 283 283 283 283 283 283 282 282 281 281 281 281 281 281 281 281 281 281 281 281 281 281 281 281 282 281 282 282 282 282 282 283 283 283 283 284 284 285 286 286 286 287 289 290 290 291 292 293 293 294 295 297 300 305 311 316 319 321 322 322 323
288 288 288 287 287 287 287 287 286 285 284 284 283 283 283 283 283 283 283 283 283 283 283 283 283 283 283 283 283 283 282 282 281 281 281 281 281 281 281 281 281 281 281 281 281 281 281 281 281 281 281 281 282 282 282 282 282 283 283 283 284 285 285 285 286 287 288 289 290 290 291 292 292 293 294 296 299 302 307 311 314 317 319 321 322
288 288 288 287 287 287 287 287 286 286 285 284 284 283 283 283 283 283 283 283 283 283 283 283 283 283 282 282 282 282 282 282 281 281 281 281 281 281 281 281 281 281 281 281 281 281 281 281 281 281 281 281 281 281 281 281 282 282 283 283 284 284 284 285 286 286 287 288 289 289 290 290 291 292 294 295 297 299 300 302 306 310 314 318 320
288 288 288 288 287 287 287 287 287 286 286 285 284 284 283 283 283 283 283 283 283 283 283 282 282 282 282 282 282 282 282 282 281 281 281 281 281 281 281 281 281 281 281 281 281 281 280 280 280 280 280 280 280 280 281 281 281 282 282 282 283 283 284 285 285 286 287 288 288 289 289 290 291 292 293 293 295 296 297 300 303 306 310 314 317
288 288 288 288 288 287 287 287 287 286 286 286 285 284 284 284 283 283 283 283 283 283 282 282 282 282 282 282 282 282 282 281 281 281 280 281 281 281 281 281 281 281 281 281 281 280 280 280 280 280 280 280 280 280 280 281 281 281 282 282 282 283 283 284 285 285 286 287 288 288 289 290 290 291 291 292 293 295 297 300 301 303 306 310 314
288 288 288 288 288 287 287 287 287 287 286 286 286 285 284 284 284 284 283 283 283 283 282 282 282 282 282 282 282 282 282 281 281 280 280 280 281 281 281 281 281 281 281 280 280 280 280 280 280 280 280 280 280 280 280 280 280 281 281 281 281 282 282 283 284 285 286 287 288 288 289 290 290 290 290 291 292 295 296 296 297 300 303 306 310
288 288 288 288 288 288 288 287 287 287 287 286 286 285 285 284 284 284 284 283 283 283 282 282 282 282 282 282 282 281 281 281 280 280 280 280 281 281 281 281 280 280 280 280 280 280 280 279 279 279 279 279 279 279 279 279 279 279 280 280 280 281 281 282 283 284 285 286 287 288 289 289 289 289 290 291 292 293 294 295 296 298 300 301 303
288 288 288 288 288 288 288 287 287 287 287 287 286 286 285 285 284 284 284 283 283 283 282 282 282 282 282 281 281 280 280 280 279 279 280 280 281 280 280 280 280 280 280 279 279 279 279 279 279 279 279 279 279 279 279 279 279 279 279 279 280 280 281 281 282 282 283 284 286 287 287 288 289 289 289 290 291 292 293 295 296 295 295 296 297
289 288 288 288 288 288 288 287 287 287 287 287 286 286 285 285 284 284 284 283 283 282 282 282 281 281 281 280 280 279 279 279 278 279 279 280 280 280 280 279 279 279 279 279 279 278 278 278 278 278 278 278 278 278 278 278 279 279 279 279 280 280 280 281 281 282 282 283 284 285 286 287 288 288 289 290 290 291 293 294 293 292 293 293 294
288 288 288 288 288 288 288 288 287 287 287 286 286 286 285 284 284 284 283 283 282 282 281 281 280 280 280 279 279 278 278 278 278 278 279 279 279 279 279 279 278 278 278 278 278 278 278 278 278 278 278 278 278 278 278 279 279 279 279 279 280 280 280 281 281 282 282 283 283 284 285 286 287 287 288 288 288 290 291 292 291 291 291 292 293
288 288 288 288 288 288 288 287 287 287 286 286 285 285 284 284 283 283 282 282 281 281 280 280 279 279 278 278 278 277 277 277 277 277 278 278 278 278 278 278 278 278 277 277 277 277 277 277 277 277 277 277 278 278 278 279 279 279 279 279 280 280 280 281 281 281 282 283 283 284 284 285 286 287 287 287 288 290 291 290 290 289 290 291 292
288 288 288 289 288 288 288 287 287 286 285 285 285 284 283 283 283 282 281 281 280 279 279 278 278 277 277 277 277 277 277 276 276 276 277 277 277 277 277 277 277 277 277 277 277 277 277 277 277 277 277 277 277 278 278 279 279 279 280 280 280 280 280 281 281 281 282 282 283 284 284 285 286 286 286 287 287 288 288 288 288 288 289 289 290
288 288 289 289 288 288 287 287 286 285 285 284 284 283 283 282 282 281 280 279 278 278 277 277 277 277 276 276 276 276 276 275 275 275 276 276 277 277 277 277 277 277 277 277 276 276 276 276 276 277 277 277 278 278 279 279 279 279 280 280 280 280 280 281 281 281 282 282 283 283 284 284 285 285 285 285 286 286 286 286 287 287 287 289 290
289 289 288 288 287 287 286 286 285 285 284 283 283 282 282 281 280 279 278 277 277 276 276 276 276 276 276 275 275 275 275 275 275 275 275 276 276 276 276 276 276 276 276 276 276 276 276 276 276 276 277 277 278 278 279 279 279 280 280 280 280 280 280 281 281 281 281 282 283 283 284 284 284 284 284 284 284 284 285 285 285 285 287 288 290
288 288 287 287 286 286 286 285 285 284 283 283 282 281 280 279 278 278 277 276 276 276 275 275 275 275 275 275 274 274 274 274 274 274 274 275 275 275 275 275 275 275 275 275 276 276 276 276 276 276 276 277 277 278 278 278 279 279 280 280 280 280 280 281 281 281 281 282 282 283 283 284 284 284 284 284 283 283 284 284 284 285 286 288 289
287 286 286 286 286 285 285 285 284 283 283 282 281 280 279 278 278 277 276 275 275 275 275 274 274 274 274 274 274 274 274 273 273 273 273 274 274 274 275 275 275 275 275 275 275 275 275 275 275 275 276 276 276 277 277 277 278 278 279 279 280 280 280 280 281 281 281 282 282 282 283 283 283 283 283 283 283 282 283 283 283 284 284 286 288
286 285 285 285 285 285 284 284 283 282 281 280 279 279 278 277 276 276 275 274 274 274 274 273 273 273 273 273 273 273 273 273 272 272 272 273 273 273 273 274 274 274 274 274 274 274 274 274 274 274 275 275 276 276 276 277 277 278 278 279 279 280 280 280 281 281 281 280 280 281 281 282 282 282 282 282 282 282 282 282 282 283 283 285 286
285 285 285 285 285 284 283 283 282 281 280 279 278 277 277 276 275 275 274 273 273 273 273 273 272 272 272 272 272 272 272 271 271 271 271 271 272 272 273 273 273 274 274 274 274 274 274 274 274 274 275 275 276 276 277 277 277 278 278 278 278 279 279 279 279 279 279 279 279 279 279 280 280 280 280 281 281 281 281 281 281 282 282 283 285
285 285 285 284 284 283 282 281 280 279 279 278 277 276 276 275 274 274 273 272 272 272 272 271 271 271 271 271 271 271 271 270 270 270 270 271 271 271 272 272 273 273 274 273 274 274 274 274 274 275 275 275 276 276 276 276 276 276 277 277 277 278 278 278 278 278 278 277 277 278 278 278 278 279 279 279 279 280 280 281 281 281 282 283 285
284 284 284 283 282 281 280 279 279 278 278 277 276 275 274 274 273 273 272 271 271 271 270 270 270 270 270 270 270 270 270 270 270 270 270 270 271 271 271 272 272 273 273 273 273 274 274 274 274 274 275 275 275 275 275 275 275 276 276 276 277 277 277 277 277 277 277 277 277 277 277 278 278 278 279 279 280 280 280 281 281 282 283 284 286
284 283 282 281 280 279 279 278 278 277 276 276 275 275 274 273 272 271 271 271 270 270 270 269 269 269 269 269 269 269 269 270 270 270 271 271 271 271 272 272 273 273 273 273 273 273 274 274 274 274 274 274 274 275 275 275 275 275 275 275 276 276 276 276 276 276 276 277 277 277 277 278 278 279 279 280 280 280 280 280 281 282 283 283 285
282 281 280 280 279 278 278 277 276 276 275 275 274 274 273 272 271 271 271 270 269 269 269 269 269 269 269 269 269 270 270 270 271 271 271 271 272 272 273 273 273 273 273 273 273 273 273 273 273 273 273 274 274 274 274 274 274 275 275 275 275 275 276 276 276 276 276 277 277 277 277 278 278 278 279 279 279 279 280 280 281 282 282 283 285
281 280 279 278 278 277 277 276 275 275 274 274 273 273 272 271 270 270 271 270 269 269 269 269 269 269 270 270 270 270 271 271 271 271 271 272 272 272 272 272 272 272 273 273 273 273 273 272 273 273 273 273 273 273 273 274 274 274 274 274 274 275 275 276 276 276 277 277 277 278 278 278 278 279 279 279 280 280 280 281 281 282 283 284 286
279 279 278 278 277 276 275 275 274 274 273 272 272 271 271 271 270 269 270 270 270 269 269 270 270 270 270 270 271 271 271 271 271 271 271 271 271 271 271 271 271 271 272 272 272 272 272 272 272 272 272 272 272 272 273 273 273 273 273 273 274 274 274 275 275 275 276 276 277 277 278 279 279 279 280 280 280 280 280 281 282 283 284 286 287
278 278 277 277 276 275 274 274 273 272 272 271 269 269 269 271 271 271 270 269 268 268 269 269 269 270 270 270 270 270 270 270 270 270 270 270 270 270 270 270 270 270 270 271 271 271 271 270 271 271 271 271 272 272 272 272 272 272 273 273 273 273 273 274 274 274 275 275 276 276 277 278 279 279 279 279 279 280 280 280 281 282 283 284 285
278 277 276 276 275 274 274 273 272 271 270 269 268 267 267 267 270 271 271 270 267 266 267 268 268 269 269 269 269 269 268 268 269 269 269 269 268 268 268 269 269 269 270 270 270 269 269 269 269 269 270 270 270 270 271 271 271 271 272 272 272 272 273 273 274 274 274 275 275 276 276 277 277 278 278 278 279 279 280 281 281 282 283 283 284
277 276 275 275 274 273 273 272 271 269 268 267 267 266 266 265 265 267 269 270 269 268 266 266 266 267 267 267 267 267 267 267 267 267 267 267 267 267 267 268 268 268 268 268 267 267 267 266 267 267 267 267 267 267 268 268 268 269 269 270 270 271 271 272 272 273 274 274 274 275 275 276 276 276 277 278 278 279 279 280 280 281 282 284 284
276 275 274 274 273 272 271 270 269 268 267 266 266 265 265 264 264 263 264 266 267 268 267 265 265 265 265 265 265 265 266 266 266 266 266 266 266 266 267 267 267 266 266 265 265 264 264 264 264 265 265 265 266 266 266 267 267 267 268 268 268 269 269 270 271 272 273 273 274 274 274 275 275 276 277 277 277 278 278 279 279 280 281 282 284
275 274 274 273 272 271 270 269 268 267 266 266 265 265 264 263 263 263 262 262 263 264 264 264 264 264 263 263 264 264 264 264 265 265 265 265 265 266 265 265 264 263 263 262 262 262 262 262 262 263 263 263 264 264 265 265 266 266 267 267 267 268 268 269 270 271 272 273 274 274 275 275 276 276 277 278 278 278 279 279 280 281 282 283 284
274 273 273 272 271 270 269 268 267 267 266 266 265 264 263 263 262 262 262 262 262 262 262 263 263 263 263 262 263 263 263 263 263 264 264 264 264 264 264 263 262 261 261 261 261 261 261 261 262 262 262 262 262 263 263 263 264 264 264 265 265 266 267 267 268 269 270 271 273 274 275 276 276 276 277 278 278 279 279 280 281 281 282 283 284
273 272 271 270 269 268 267 267 267 266 266 265 264 263 263 262 262 262 261 261 261 261 262 262 262 262 262 262 262 262 262 262 262 262 262 262 262 262 261 261 260 260 260 260 261 261 261 261 261 262 262 262 262 263 263 263 264 264 264 265 265 266 267 267 268 268 269 270 271 272 274 275 275 276 277 277 278 278 279 280 281 282 282 283 283
271 271 270 268 267 267 266 266 266 265 265 264 263 262 262 261 261 261 261 261 261 261 261 261 261 261 261 262 262 261 261 261 261 260 260 260 260 260 260 260 260 260 260 260 260 260 261 261 261 261 261 262 262 262 262 263 263 264 264 265 265 266 266 267 268 269 270 271 271 272 273 273 274 275 276 277 278 278 279 280 281 282 283 283 284
270 269 268 267 266 266 266 266 265 265 264 263 262 261 261 261 261 261 261 261 260 260 260 260 260 260 261 261 261 261 260 260 260 260 260 260 260 259 259 259 259 259 260 260 260 260 260 260 260 261 261 261 261 262 262 262 263 263 263 264 265 265 266 266 267 268 269 270 271 272 273 273 274 275 276 277 278 278 279 280 280 281 282 283 283
268 268 267 266 266 266 266 265 265 264 263 262 261 261 260 260 260 260 260 260 260 260 260 260 260 260 260 260 260 260 260 260 260 260 260 259 259 259 259 259 259 259 259 259 259 259 260 260 260 260 261 261 261 261 262 262 262 263 263 263 264 265 265 265 266 267 268 269 270 271 272 273 273 274 275 276 277 278 279 280 280 281 282 282 283
267 267 267 266 266 266 265 265 264 263 262 261 260 260 260 260 260 260 260 259 259 260 260 260 260 260 260 260 260 260 260 260 259 259 259 259 259 259 258 258 258 258 258 259 259 259 259 259 260 260 260 260 261 261 261 262 262 262 263 263 263 264 264 264 264 265 266 266 267 268 269 269 270 272 273 275 276 277 279 280 280 281 282 282 283
266 266 266 266 266 265 264 264 263 262 261 261 260 260 260 259 259 259 259 259 259 259 259 259 259 260 260 260 259 259 259 259 259 259 259 259 258 258 258 258 258 258 258 258 258 259 259 259 259 260 260 260 260 261 261 262 262 263 263 263 263 264 264 264 264 265 265 266 266 267 268 269 271 272 273 274 276 277 278 279 280 281 282 283 283
266 266 266 265 265 264 263 263 262 261 261 260 260 259 259 259 259 259 259 259 259 259 259 259 259 259 259 259 259 259 259 259 258 258 258 258 258 258 258 258 258 258 258 258 258 258 258 259 259 259 260 260 260 261 261 261 262 262 263 263 264 264 264 265 265 265 266 267 267 268 269 270 271 272 273 274 275 276 277 278 280 281 282 283 284
266 266 265 265 264 263 263 263 262 261 260 260 259 259 259 259 259 259 258 258 258 258 258 258 259 259 259 259 259 258 258 258 258 258 258 258 258 258 258 258 258 258 258 258 258 258 258 259 259 259 259 260 260 260 261 261 262 262 263 263 264 264 265 265 265 266 266 266 267 267 268 270 271 272 273 274 275 275 276 277 278 279 281 283 284
266 266 265 264 263 263 263 262 262 261 260 259 259 259 259 259 258 258 258 258 258 258 258 258 258 258 258 258 258 258 258 258 258 258 258 258 258 258 258 258 258 258 258 258 259 259 259 259 259 259 260 260 260 261 261 261 262 262 263 263 263 264 264 265 265 266 266 266 267 267 268 269 270 271 272 273 273 274 275 276 278 279 281 283 284
265 265 264 263 263 262 262 262 261 261 260 259 259 258 258 258 258 258 258 257 258 258 258 258 258 258 258 258 258 258 258 258 258 258 258 258 258 258 258 258 259 259 259 259 259 259 259 260 260 260 260 261 261 261 262 262 262 263 263 263 263 263 264 264 264 265 266 266 267 267 267 268 269 270 271 272 273 275 276 278 279 281 282 283 284
264 264 263 263 262 261 261 261 260 260 260 259 258 258 258 258 258 257 257 257 257 257 257 257 257 257 257 257 257 257 257 257 257 257 258 258 258 258 258 259 259 259 259 260 260 260 260 260 261 261 261 261 261 262 262 262 263 263 263 264 264 264 264 264 264 264 265 265 266 266 267 268 269 269 270 271 273 275 276 277 278 279 280 282 283
263 263 263 262 262 261 261 260 260 259 259 259 258 258 258 257 257 257 257 257 257 257 257 257 257 257 257 257 257 257 257 257 257 257 258 258 258 258 259 259 259 260 260 260 260 261 261 261 261 261 261 262 262 262 262 262 263 263 263 264 264 264 264 265 265 265 265 265 266 266 267 267 268 269 271 272 273 274 275 276 277 278 279 281 282
263 263 262 262 261 261 260 260 259 259 259 259 258 258 257 257 257 257 256 256 256 256 256 256 257 257 257 257 257 257 257 257 257 257 258 258 258 259 259 259 260 260 260 261 261 261 261 261 262 262 262 262 262 262 262 262 263 263 263 264 264 265 265 265 265 265 266 266 266 267 267 268 269 270 271 271 272 272 273 274 275 277 279 280 281
263 262 262 261 261 261 260 260 259 259 259 258 258 257 257 257 256 256 256 256 256 256 256 256 256 256 256 256 256 257 257 257 257 257 258 258 259 259 259 260 260 260 261 261 261 261 262 262 262 262 262 262 262 263 263 263 263 263 264 264 265 265 265 266 266 266 266 266 266 266 267 267 268 268 269 269 270 271 272 273 274 276 279 280 281
262 262 262 261 261 260 260 260 259 259 259 258 258 257 257 256 256 256 256 255 255 256 256 256 256 256 256 256 256 257 257 257 257 257 258 258 259 259 260 260 260 261 261 261 262 262 262 263 263 263 263 263 263 263 263 263 263 263 264 264 265 265 266 266 266 267 267 266 266 266 266 267 267 267 268 268 269 271 272 273 275 277 279 280 282
Wind_Speed
6 7 7 8 8 8 8 9 9 10 10 11 12 13 14 14 15 16 18 19 21 23 24 25 26 27 28 29 29 29 30 31 31 31 31 30 30 30 30 31 31 30 30 31 31 30 29 30 31 33 32 31 31 32 33 32 32 31 30 31 32 27 26 24 16 19 34 38 37 40 44 44 41 35 34 34 33 32 31 31 29 28 26 23 24
4 5 6 6 6 6 6 7 7 8 9 10 12 13 14 14 15 17 18 19 20 22 23 23 24 24 25 26 27 28 28 29 29 30 30 30 29 29 30 30 31 31 31 32 33 32 32 31 30 32 33 33 32 32 32 33 31 31 31 30 31 29 25 25 23 20 27 38 40 41 44 43 40 37 35 35 37 36 34 33 31 30 28 25 24
2 3 4 4 5 5 6 7 8 9 10 11 12 13 13 14 15 15 16 17 18 19 20 21 21 22 22 23 24 25 25 26 27 28 29 29 29 28 28 29 29 30 30 31 32 33 33 33 32 32 32 32 33 32 32 32 31 31 33 32 31 30 26 24 25 23 26 33 36 37 40 41 41 39 36 36 39 37 36 34 33 32 30 28 27
5 4 5 6 6 6 8 9 10 11 12 13 13 13 12 12 12 12 12 12 13 14 16 17 19 20 21 21 22 23 24 25 25 27 27 28 28 27 28 28 28 28 29 29 31 32 32 33 34 34 34 33 34 34 32 32 32 31 33 34 32 31 28 24 24 25 27 31 34 34 36 38 40 41 37 35 37 37 37 37 35 34 32 30 30
7 7 9 10 11 10 11 11 12 13 13 13 13 12 11 11 10 11 11 12 13 14 15 16 17 19 21 22 24 24 25 26 26 27 27 26 26 27 27 27 28 28 29 29 30 30 32 33 34 35 35 36 35 35 34 33 32 33 33 34 34 33 31 27 25 27 27 29 33 34 35 34 37 40 37 31 33 37 37 37 36 35 34 33 32
9 10 12 13 14 13 13 13 12 12 13 13 13 12 11 11 11 12 13 15 16 16 17 18 19 20 21 22 24 26 27 28 29 29 29 28 27 27 28 29 29 30 30 30 30 31 31 32 34 34 35 36 37 36 36 35 34 34 34 34 34 33 32 29 27 27 28 29 32 32 33 33 34 38 38 32 31 34 36 36 36 35 35 35 34
11 13 14 14 14 14 14 14 13 13 13 13 13 13 12 13 14 14 15 16 18 19 20 21 21 22 23 24 24 26 27 29 31 31 31 31 30 31 31 31 32 32 33 33 33 33 33 32 33 34 34 35 36 36 35 36 36 36 35 34 33 32 31 30 29 28 27 29 30 30 31 31 31 34 37 35 34 32 29 30 31 31 33 35 37
15 16 17 17 17 17 16 15 15 15 14 14 14 14 14 15 15 16 16 17 19 20 21 22 24 25 26 27 27 27 27 29 30 31 31 32 32 33 34 34 35 36 36 36 36 35 35 35 34 34 33 33 34 36 36 36 37 37 36 33 32 31 31 31 29 28 27 27 29 29 30 31 31 31 32 31 30 29 26 26 29 31 32 33 37
19 19 20 20 20 19 19 18 18 17 17 17 16 16 16 16 17 17 18 19 21 22 22 23 25 27 28 29 29 29 30 31 31 31 31 31 31 32 34 34 35 37 38 38 38 37 37 37 36 35 34 34 34 35 37 36 35 36 35 33 33 33 32 31 29 28 27 26 27 28 28 29 28 27 26 25 23 27 31 31 31 34 34 34 37
22 22 23 23 22 22 21 21 21 20 20 20 19 19 18 18 19 20 20 22 23 23 24 25 26 28 29 30 31 31 32 33 33 33 33 31 31 31 33 34 35 36 37 38 39 39 37 37 37 37 36 35 35 34 35 35 35 35 35 35 35 35 34 32 30 28 27 26 26 26 24 26 27 25 25 27 26 27 31 30 29 33 33 30 31
24 25 25 25 24 24 24 23 23 23 23 23 22 22 21 20 21 22 23 24 24 24 25 26 27 29 30 31 32 32 33 34 34 34 34 32 31 33 34 35 35 35 35 37 38 38 38 37 37 37 36 35 35 34 33 34 34 35 36 36 36 36 36 35 33 31 28 27 28 28 24 26 30 27 26 30 29 26 27 27 27 29 27 21 20
26 27 27 27 26 26 26 26 26 25 25 26 25 24 23 23 23 24 25 25 25 25 26 27 28 29 30 31 32 33 33 33 33 34 33 32 31 33 35 36 36 36 36 36 37 38 38 38 37 37 36 35 36 36 36 36 36 36 38 38 38 38 38 38 37 35 33 30 30 30 28 28 32 31 28 29 29 27 28 29 28 27 24 22 21
28 28 28 27 27 27 27 28 27 28 28 28 27 26 26 26 26 26 27 26 26 26 27 28 29 29 30 32 32 33 33 33 33 34 33 32 30 31 35 36 37 37 37 37 38 38 38 38 39 38 37 36 36 37 38 39 39 38 40 41 41 41 40 39 40 40 40 37 34 34 34 32 33 35 33 30 31 31 31 31 29 25 24 25 27
29 30 29 28 28 28 29 29 29 30 29 29 29 28 28 28 28 28 27 26 27 27 28 29 29 30 31 31 32 33 33 33 33 33 32 31 31 32 34 36 37 37 38 38 39 39 39 40 40 41 40 39 38 38 39 40 41 42 43 43 44 44 42 41 41 41 43 42 40 42 41 37 37 40 37 32 32 34 32 30 29 28 30 33 36
30 31 30 28 28 28 29 30 30 31 31 31 30 30 30 30 29 27 26 26 27 27 28 29 30 30 30 30 31 33 33 34 33 32 31 31 32 33 35 36 37 38 39 40 40 41 42 42 43 43 43 42 41 40 40 42 43 44 44 44 44 45 44 43 42 42 43 42 43 45 45 40 38 40 38 33 33 35 33 32 33 34 35 38 40
32 32 31 29 28 28 28 30 31 31 31 31 31 31 31 30 28 26 25 26 27 28 29 29 29 29 29 30 31 34 35 35 33 31 32 32 33 34 36 37 38 39 40 41 41 41 42 43 44 45 45 45 44 41 41 42 44 44 45 45 45 44 44 44 43 41 42 43 45 46 46 44 40 41 40 37 36 37 35 34 35 34 30 28 30
33 33 31 30 29 28 27 28 30 30 30 30 30 30 29 27 25 24 25 26 27 28 29 29 29 29 31 32 32 34 36 36 35 33 33 34 34 35 36 37 37 38 39 40 41 42 42 43 43 44 46 46 45 43 41 41 43 44 46 46 44 43 44 46 45 43 42 44 47 48 48 47 44 44 43 39 37 37 34 31 31 28 22 16 17
34 32 31 31 29 28 27 27 28 29 28 28 29 27 25 23 22 23 25 27 28 28 28 30 31 31 32 33 33 35 37 38 38 36 35 34 34 34 36 36 37 38 39 39 40 41 43 43 43 44 46 47 46 44 42 41 43 44 45 44 42 42 43 44 44 44 43 44 46 47 47 46 44 43 41 38 35 33 31 31 31 27 20 16 16
34 33 33 31 30 28 27 27 27 26 26 26 25 22 21 21 22 24 25 26 28 29 29 30 32 33 33 33 34 35 38 39 40 38 36 34 33 34 35 35 36 37 38 38 40 41 44 46 45 44 45 45 45 44 42 42 43 44 44 43 40 40 43 44 42 41 42 43 44 44 44 43 42 40 38 37 35 33 32 34 34 29 23 22 23
36 35 33 30 28 27 26 25 24 24 23 22 20 19 19 22 23 24 26 27 27 29 29 30 32 35 34 34 34 35 37 39 40 39 36 34 34 34 34 34 35 36 37 37 39 40 42 43 42 41 40 41 41 41 41 41 42 43 44 43 39 41 46 46 42 40 42 43 44 43 42 42 41 40 38 37 35 33 33 34 35 33 28 27 28
36 34 30 28 26 25 24 23 22 21 20 19 18 19 21 23 24 25 26 27 28 29 30 30 32 35 36 34 34 35 37 38 39 38 36 35 34 34 33 34 35 36 36 36 36 36 36 37 37 38 38 39 40 41 41 41 42 43 44 43 43 44 46 45 43 42 42 43 44 43 42 41 40 39 37 36 35 33 33 34 35 35 32 31 31
32 29 26 25 24 23 22 21 20 18 18 18 19 21 22 23 25 25 26 27 28 29 30 31 32 34 36 35 34 36 37 37 38 38 37 35 34 33 34 34 34 35 35 35 35 35 36 36 37 38 39 40 41 42 43 43 44 44 44 45 46 47 47 46 45 42 40 39 39 38 36 34 34 35 35 36 37 35 35 36 36 36 36 36 37
27 25 23 23 22 21 20 19 17 17 18 19 20 22 23 24 25 25 25 26 27 28 30 30 30 32 34 35 36 37 38 38 39 38 36 34 34 35 35 35 36 35 35 35 36 37 37 37 38 39 40 41 42 43 44 44 44 45 46 46 47 46 46 44 40 35 34 34 33 32 31 30 31 34 35 38 41 40 38 38 38 38 38 39 41
23 22 22 21 20 19 18 17 16 17 18 20 21 22 24 24 25 26 24 24 25 28 30 30 29 30 32 36 38 40 40 39 39 40 38 36 37 38 38 38 37 37 36 37 38 38 39 39 40 42 43 44 46 46 47 47 47 48 49 48 47 45 42 39 36 33 32 32 32 32 34 35 37 40 41 43 46 45 42 39 38 40 42 43 44
20 20 20 19 18 17 16 16 16 17 19 20 21 23 23 24 25 26 25 25 25 27 28 28 28 29 31 34 37 40 40 40 41 42 43 41 40 40 40 40 39 39 39 40 40 41 42 43 45 47 48 48 49 49 49 48 48 48 48 48 46 44 41 39 40 38 34 34 35 35 37 41 43 46 48 48 47 45 42 40 40 43 44 44 43
19 19 18 17 16 15 15 15 16 17 19 20 21 22 22 23 25 26 27 26 26 27 27 27 28 30 31 34 37 39 40 41 43 43 43 43 43 43 42 42 41 41 40 41 43 44 45 46 47 48 48 48 48 48 47 48 47 47 47 47 46 44 43 41 39 36 35 37 38 38 39 43 45 45 45 44 42 41 40 39 39 40 40 38 38
17 16 15 14 14 13 14 16 17 18 19 20 21 23 23 23 24 26 27 27 26 27 26 27 29 30 32 35 38 39 40 42 42 42 41 41 43 43 43 42 42 42 41 41 42 43 44 45 47 47 48 49 49 49 49 49 48 47 47 47 47 47 46 43 39 38 37 38 38 39 41 43 42 39 38 38 38 39 39 38 38 37 39 39 36
15 14 12 12 12 14 15 16 17 19 20 21 22 24 24 24 24 26 28 27 26 27 28 28 30 31 32 34 35 35 37 39 38 38 39 41 42 43 42 42 43 42 42 42 43 45 47 48 48 47 47 47 46 46 46 45 45 44 44 44 45 46 45 42 41 41 40 40 40 41 42 42 39 38 37 36 37 39 40 40 38 37 39 37 30
12 11 11 12 13 14 16 16 18 20 21 22 24 25 25 24 24 27 30 29 26 26 27 29 31 31 31 32 31 30 33 36 39 40 41 42 43 43 43 44 45 45 45 46 48 49 48 46 44 42 41 40 40 40 39 39 40 41 41 42 44 44 43 41 39 39 40 40 39 38 39 39 39 39 37 33 33 37 39 39 37 36 37 34 26
11 11 11 13 14 15 16 17 18 19 21 23 25 26 27 26 24 25 29 32 30 27 25 27 31 31 31 32 32 31 33 37 40 42 42 42 43 44 45 46 47 48 48 48 48 47 43 40 38 37 36 35 34 34 33 32 33 34 35 36 38 39 40 41 41 40 40 41 40 39 40 38 36 34 32 29 30 33 36 39 39 36 33 27 21
11 11 12 14 14 15 16 18 19 20 21 22 22 24 28 30 31 30 29 31 32 31 28 27 28 28 30 32 33 33 34 36 38 40 41 42 43 44 46 47 48 48 47 47 46 43 38 36 36 35 34 33 33 34 35 35 35 35 35 35 37 40 40 41 41 41 40 41 42 43 44 42 37 34 34 33 33 34 36 39 39 36 34 30 24
11 12 13 14 14 15 17 18 19 20 20 20 20 21 24 28 33 37 37 34 32 30 27 27 28 26 25 26 29 32 34 35 37 39 40 41 43 45 46 47 47 47 46 44 42 37 33 32 33 32 32 32 32 33 35 34 33 33 32 32 35 37 36 36 37 37 38 39 40 40 40 40 37 36 37 37 35 33 33 34 33 32 32 30 27
13 13 14 14 15 16 17 18 19 19 19 19 20 21 22 23 26 33 39 41 41 35 26 21 22 26 26 24 24 29 34 37 38 39 39 40 41 43 46 46 46 45 43 39 35 32 31 32 33 33 34 35 35 36 36 35 35 36 36 35 36 37 38 39 39 39 39 39 39 40 41 41 40 39 38 37 34 31 31 32 32 30 26 22 22
13 13 14 14 15 16 16 17 17 17 18 19 20 21 22 22 22 25 29 34 40 43 38 27 20 22 28 31 30 29 31 35 38 38 38 39 40 42 45 47 45 41 38 33 31 32 35 35 34 34 34 35 35 36 36 36 36 37 38 38 39 42 46 47 46 44 42 40 39 41 41 41 41 39 37 35 33 31 30 31 32 30 26 23 24
13 13 14 15 16 16 16 16 16 17 18 20 20 21 23 23 23 23 24 24 27 34 41 41 35 30 32 37 39 35 31 32 35 38 38 39 40 41 42 42 39 36 34 33 32 34 36 37 37 36 35 35 36 36 35 34 34 34 34 35 34 34 37 37 36 36 36 35 35 37 38 38 39 38 35 32 30 29 28 28 30 30 27 25 24
13 14 14 15 15 15 15 15 16 18 19 20 21 21 22 23 23 24 25 25 26 28 35 42 45 43 40 38 39 40 37 34 35 38 38 38 39 38 36 36 37 37 37 36 36 37 37 37 38 39 38 39 40 39 39 39 40 40 41 41 40 40 41 41 40 39 37 35 35 34 34 35 36 35 33 31 31 31 31 30 30 31 29 25 23
13 14 14 14 14 14 15 16 16 18 19 20 21 22 22 23 24 25 25 26 27 29 32 37 40 43 44 42 40 42 43 40 38 38 36 35 35 36 35 36 38 39 38 37 36 36 37 37 37 37 38 38 39 38 39 39 40 40 40 40 40 40 39 40 41 40 38 37 36 35 34 33 33 32 30 29 29 31 32 31 29 29 30 30 27
14 14 13 13 13 13 15 16 17 18 19 20 20 21 23 24 24 24 25 26 27 28 32 35 35 36 40 43 43 43 44 44 41 39 37 35 35 35 36 36 36 36 37 38 38 38 39 40 40 39 40 40 39 39 39 39 39 39 39 38 39 40 39 38 38 37 35 35 36 36 36 36 36 37 34 31 29 28 28 29 29 27 27 28 26
13 12 12 12 12 14 15 17 18 18 19 20 20 20 21 23 24 24 24 26 28 29 31 33 34 35 36 40 43 43 42 41 39 39 40 39 36 35 35 36 36 36 38 40 40 40 41 42 41 40 40 40 39 40 40 40 39 39 39 38 39 40 39 38 36 34 32 33 34 33 33 33 35 36 35 33 32 30 29 30 31 29 26 25 25
11 11 12 12 13 15 16 17 18 19 19 20 20 20 21 22 24 25 26 26 28 31 31 31 33 36 37 38 39 39 39 38 38 38 39 40 39 38 37 37 38 39 39 40 40 40 41 41 41 41 40 40 39 40 41 41 40 40 39 38 38 37 37 37 37 35 33 32 32 30 30 30 31 31 31 32 33 33 32 32 33 33 32 29 28
11 11 12 13 14 16 17 17 18 19 19 20 20 21 22 23 24 25 27 27 28 31 32 33 35 37 38 39 38 36 35 37 40 40 40 41 42 42 41 40 41 41 40 40 41 42 41 41 42 42 41 41 41 41 41 40 40 39 38 38 39 41 42 42 42 41 39 39 39 39 38 39 38 36 34 33 32 33 33 33 34 36 35 33 30
11 12 13 14 15 16 17 18 19 19 19 21 21 21 22 24 24 25 26 27 29 31 33 36 37 37 38 39 39 36 34 37 40 41 42 43 43 42 42 43 44 43 42 43 43 44 44 44 44 43 43 43 43 41 40 40 39 38 37 38 39 41 42 42 42 42 41 41 42 41 39 39 38 35 34 33 32 32 32 31 31 32 33 31 29
12 13 14 15 16 16 17 18 19 19 20 21 22 22 22 23 24 25 26 28 30 31 32 35 38 38 39 40 39 36 35 37 39 41 42 42 42 43 44 45 45 45 46 46 46 46 46 46 46 45 44 44 44 42 41 41 41 39 39 38 38 40 40 38 37 37 36 35 35 35 35 35 34 33 33 34 33 31 30 29 28 30 30 30 29
14 15 16 16 17 17 18 19 19 20 22 22 22 23 24 23 24 25 26 28 30 31 31 34 37 38 39 40 39 38 37 38 40 41 41 41 42 44 46 47 47 47 47 47 47 47 47 46 47 47 45 45 45 45 44 43 42 41 40 39 38 39 39 37 37 38 38 38 38 37 36 35 34 32 31 31 29 27 27 27 28 28 28 27 25
14 16 17 17 17 17 18 19 20 21 22 23 24 25 24 24 25 26 26 28 30 31 32 34 35 36 38 40 40 39 39 40 41 42 43 43 44 45 47 47 47 47 48 49 49 48 47 47 48 47 46 45 45 46 45 45 44 44 43 43 42 41 40 39 38 38 37 37 36 34 33 33 33 32 30 29 29 29 29 30 31 28 26 24 23
14 15 16 17 18 18 19 19 20 22 23 23 24 25 26 26 26 26 27 28 30 31 33 34 35 36 37 39 40 41 41 41 42 43 44 44 45 46 47 47 47 48 49 50 50 49 48 47 47 47 46 46 47 46 45 45 45 45 45 45 45 45 45 44 42 40 38 38 37 38 38 37 36 35 32 30 30 30 29 29 27 25 23 23 22
14 16 16 17 18 19 20 20 20 22 23 23 24 25 26 27 27 27 28 28 29 31 33 34 35 36 37 39 40 42 42 42 43 44 45 45 45 46 46 48 49 50 50 50 49 48 47 46 46 46 46 46 46 45 45 45 45 45 45 45 45 45 44 43 42 42 42 41 40 40 39 37 35 34 34 33 31 30 28 26 25 24 24 25 24
15 15 16 17 18 19 20 20 21 22 23 24 25 26 27 27 28 28 29 29 29 31 32 33 35 37 38 39 41 42 42 43 43 44 45 45 46 46 47 48 49 50 49 49 49 48 47 47 47 46 46 46 44 43 44 44 44 44 44 44 44 43 41 40 40 40 39 39 39 40 40 40 39 38 35 31 28 26 26 26 25 24 24 24 25
16 16 17 17 18 19 20 21 21 22 23 24 25 26 27 27 28 29 29 30 30 31 32 33 35 37 39 40 41 41 42 42 43 44 45 46 46 47 48 48 49 49 49 49 50 50 49 49 48 46 45 45 43 43 44 44 44 44 44 43 42 42 41 41 41 40 38 37 37 38 38 38 38 36 32 28 26 27 28 27 27 27 25 24 27
17 17 17 18 19 20 20 21 22 23 23 23 25 26 27 28 28 29 29 30 31 32 33 35 37 38 39 40 41 41 41 41 42 44 45 46 47 48 48 48 49 50 51 51 52 51 50 49 48 46 45 44 43 43 43 43 43 43 43 42 41 40 39 40 41 41 41 41 40 40 40 40 39 38 37 35 33 32 30 30 30 29 25 24 28
17 17 18 18 19 20 20 21 22 23 23 24 24 26 27 28 29 30 30 30 31 33 35 36 38 39 39 40 40 40 40 41 42 43 44 45 46 48 48 49 50 51 51 52 52 52 50 49 48 47 45 44 43 42 42 42 42 42 41 40 40 40 39 39 38 38 39 39 40 40 40 39 38 39 38 37 35 33 31 31 32 30 25 26 30
Wind_Direction
53 51 49 47 41 37 35 35 37 37 37 36 35 34 33 31 30 28 27 26 25 23 21 19 17 16 15 13 12 10 9 8 7 6 5 3 2 360 358 356 355 353 351 349 349 348 346 345 343 342 342 340 339 338 336 336 336 334 334 333 332 336 337 329 315 305 311 316 318 317 319 322 319 305 290 282 278 275 274 275 278 278 279 279 276
35 35 36 37 30 28 27 25 25 23 22 24 24 23 23 21 19 18 18 18 18 17 16 14 13 11 9 8 6 4 2 0 360 358 357 355 354 353 352 351 349 348 346 345 344 343 341 339 338 338 337 335 333 334 332 331 331 329 328 329 327 328 333 327 317 309 308 313 317 317 318 319 317 314 308 296 287 280 275 274 275 276 275 275 274
323 349 4 11 10 10 8 6 7 5 6 7 9 11 12 12 12 8 8 8 7 7 5 3 3 1 0 359 357 356 355 353 352 351 349 347 346 345 344 343 342 341 340 339 338 338 336 334 333 332 332 330 328 328 327 326 326 324 323 324 322 321 324 322 314 309 306 308 312 314 316 316 312 312 313 308 299 288 278 276 276 275 272 270 270
284 302 325 338 343 349 352 351 349 348 348 347 347 350 351 352 354 352 351 351 350 349 348 347 346 345 346 346 346 346 346 345 345 344 343 341 339 338 337 336 335 334 332 332 331 331 330 328 327 327 326 324 322 321 321 320 319 319 318 318 317 315 316 317 312 307 304 304 307 309 310 310 308 308 310 312 308 296 283 277 275 272 270 267 266
281 298 314 322 324 329 335 336 335 332 326 322 322 324 326 326 327 328 327 326 326 326 327 329 330 331 333 335 335 337 338 338 337 336 337 336 333 331 330 329 329 327 326 325 325 324 323 322 321 322 322 319 318 317 316 315 314 314 313 313 313 312 311 311 309 307 303 299 302 306 307 306 306 306 308 312 312 306 295 282 273 269 267 264 263
283 296 302 304 304 307 310 312 314 311 304 302 302 302 305 306 308 311 313 314 316 318 321 323 323 323 325 327 329 332 334 334 334 334 333 332 330 328 326 325 323 322 321 320 319 318 317 316 316 316 316 314 313 313 312 311 310 309 309 309 309 308 307 307 307 305 301 298 300 303 304 305 305 304 307 311 310 306 301 292 279 268 263 261 260
278 284 286 284 283 285 287 289 291 292 292 292 291 292 296 299 301 306 309 312 315 319 321 323 324 323 322 322 324 326 328 330 331 332 331 330 328 325 324 323 321 319 318 317 316 315 313 311 310 310 310 309 308 307 307 307 306 305 305 305 305 304 303 303 304 303 299 298 299 300 301 301 301 300 304 311 310 304 302 299 288 274 264 258 257
271 275 275 272 271 273 277 279 280 284 287 286 287 289 293 297 301 305 308 311 315 319 322 323 323 323 322 322 322 321 322 323 325 326 326 325 323 322 321 320 318 316 315 313 313 312 310 309 307 306 305 304 303 303 302 302 302 301 301 301 301 301 299 300 300 299 297 296 295 297 299 298 298 299 303 311 314 310 311 311 302 292 281 267 259
268 271 270 269 270 273 276 276 278 281 283 284 285 287 290 295 300 303 307 311 315 317 320 321 320 320 320 320 320 319 318 318 320 320 319 318 317 316 315 314 313 311 310 309 308 307 306 306 305 304 303 301 300 299 298 298 296 295 296 298 298 297 296 296 295 295 294 292 291 294 296 294 295 301 305 307 308 308 312 313 305 300 297 284 269
266 269 269 270 273 275 275 275 276 278 281 284 286 286 288 292 296 300 304 309 313 316 317 317 316 317 317 316 315 314 313 314 315 315 314 313 312 310 309 307 306 305 304 303 303 303 303 303 302 302 302 301 299 297 295 295 293 291 290 292 293 293 292 292 290 290 290 288 288 290 291 289 291 297 300 300 302 304 306 308 304 303 304 295 276
265 269 271 273 275 275 275 275 275 276 279 283 285 286 288 289 291 295 300 304 309 312 312 312 312 313 312 310 309 307 307 308 309 309 309 309 307 306 305 304 302 301 300 299 299 300 301 300 300 301 300 299 298 296 293 291 289 289 288 287 286 285 286 287 286 286 284 283 283 283 283 284 288 294 295 296 299 300 300 303 304 303 304 299 285
264 270 275 277 277 277 277 276 276 276 278 281 285 287 288 287 288 290 294 300 305 307 307 307 308 308 306 304 303 301 301 302 304 305 305 304 303 303 303 301 301 299 298 298 297 298 299 299 299 299 298 297 296 295 294 291 289 288 286 285 283 280 279 279 280 281 280 279 279 278 277 280 285 289 290 293 297 297 298 299 297 296 297 295 292
264 270 276 279 279 280 280 278 278 278 278 280 283 286 286 285 286 288 291 297 301 303 304 304 304 303 302 300 299 298 298 300 302 303 302 300 298 298 299 298 297 297 297 297 297 297 298 298 298 297 296 295 294 294 293 292 291 289 287 286 284 281 279 276 276 277 277 275 274 274 274 276 280 282 284 288 292 293 294 293 293 296 298 296 292
262 268 274 278 279 281 280 279 278 279 280 280 281 283 284 284 285 286 290 296 300 301 302 302 301 301 299 298 296 296 297 298 300 300 298 297 296 296 296 295 294 294 294 294 295 295 296 296 295 294 294 294 293 292 292 291 291 290 288 286 284 283 282 278 276 276 275 273 272 273 273 273 273 277 281 284 285 286 288 290 295 298 295 293 291
259 265 270 274 277 279 279 279 279 279 280 279 279 281 282 283 284 287 291 296 299 300 300 300 299 299 298 297 296 295 296 298 299 298 296 295 296 295 295 294 294 293 293 293 293 293 294 294 293 293 292 292 291 290 289 289 289 287 285 284 282 282 281 279 278 277 275 274 272 273 274 272 271 274 277 279 281 281 282 285 290 293 291 291 292
256 262 266 270 274 276 278 278 278 278 278 277 277 279 281 282 285 289 293 296 297 299 299 298 298 297 297 296 295 295 296 298 299 297 296 296 297 296 296 295 294 293 292 293 293 293 293 292 292 291 291 290 289 288 286 286 285 284 283 281 281 280 279 278 278 276 274 274 274 273 274 273 273 273 275 277 279 278 281 284 285 287 289 289 290
255 260 265 269 272 275 277 278 277 277 277 276 276 278 280 283 287 291 294 296 297 298 297 297 296 296 296 296 295 295 297 299 299 298 297 297 298 298 297 295 294 293 292 292 293 293 292 291 290 290 289 289 288 286 284 283 282 281 280 280 279 278 277 278 278 277 275 275 275 274 274 274 273 273 274 275 276 276 280 283 280 281 285 284 285
254 259 264 268 272 274 276 277 277 277 276 275 276 279 281 284 288 292 294 295 296 296 296 297 296 296 295 295 296 296 297 299 301 299 298 298 298 298 297 295 294 293 292 292 293 292 292 290 289 287 287 286 286 285 284 282 281 279 278 278 278 276 277 278 279 279 278 277 276 275 274 273 272 272 274 273 273 274 275 275 275 277 279 273 274
256 261 265 269 271 272 274 275 276 277 276 276 277 278 281 285 289 292 294 294 296 296 296 296 296 296 295 295 296 297 298 299 302 301 300 299 298 297 297 295 294 293 293 293 292 292 291 290 288 286 285 284 284 284 283 282 280 277 276 276 276 275 277 278 278 278 278 277 275 274 272 272 271 271 272 272 273 274 271 270 272 272 268 265 267
262 264 266 268 269 270 273 275 276 276 275 274 276 277 282 288 291 293 295 296 297 297 296 296 295 295 296 297 297 298 298 299 301 302 300 299 298 298 297 296 294 293 293 293 292 291 290 289 288 286 285 285 285 284 285 283 280 278 276 274 272 273 277 278 277 277 277 275 274 273 271 271 271 271 272 273 274 274 271 270 271 267 262 262 264
264 264 265 266 268 270 274 275 275 274 271 270 273 278 285 290 292 296 299 299 299 297 296 296 295 296 298 298 298 298 299 300 301 301 299 298 298 299 298 296 295 294 294 293 291 289 288 287 287 286 286 286 286 285 285 284 281 280 277 274 272 273 275 277 277 277 276 275 275 273 271 270 270 269 271 273 274 275 274 272 271 267 261 259 261
263 264 266 268 270 272 274 273 270 267 265 269 277 283 288 292 296 299 301 300 298 297 297 297 296 297 299 300 299 300 300 301 300 300 299 298 298 299 298 296 295 294 293 292 289 287 286 284 284 284 285 285 285 285 284 284 282 281 279 276 275 275 275 276 277 276 275 275 275 274 272 271 270 270 271 274 275 276 276 276 274 270 264 260 260
265 267 268 268 269 270 268 265 261 261 267 276 283 288 292 296 300 302 301 299 298 297 296 297 297 297 299 300 301 301 301 301 301 300 299 299 299 299 296 295 294 292 290 289 287 285 284 283 283 284 284 284 283 282 282 282 281 279 278 278 278 278 279 279 278 275 274 275 276 274 273 271 271 272 272 273 275 276 276 277 276 273 270 267 265
266 266 266 265 265 262 257 254 257 265 276 283 287 292 297 301 303 302 300 298 296 295 296 297 298 298 299 300 301 301 302 302 302 301 301 300 299 298 296 295 293 291 289 287 285 284 284 282 282 283 284 284 283 283 282 282 281 280 280 281 281 281 281 280 278 277 277 277 276 274 272 271 270 270 271 272 274 276 276 276 275 274 275 273 270
262 261 260 257 254 250 248 254 264 274 282 287 292 297 301 302 302 302 300 297 294 293 294 296 297 297 297 298 299 301 302 303 303 303 304 304 301 298 297 295 294 292 290 287 285 284 284 284 284 284 284 284 284 284 282 281 280 280 280 281 281 280 278 277 277 277 276 275 275 273 273 273 271 270 272 272 272 274 274 274 275 275 276 275 272
256 254 249 246 244 246 254 266 275 281 287 292 297 300 301 301 300 300 299 296 293 292 293 296 297 296 296 296 297 299 302 303 303 304 306 305 304 301 299 297 296 294 291 288 287 287 286 285 285 284 283 283 282 281 280 279 278 279 279 279 279 278 277 276 274 273 272 271 272 271 272 274 274 273 273 272 271 271 271 272 274 274 274 274 273
248 242 237 239 247 257 270 279 283 289 294 298 300 300 300 300 298 297 296 295 294 294 294 295 295 294 294 296 298 300 302 303 303 305 306 305 304 303 301 299 298 297 295 292 291 290 288 286 285 284 283 283 281 280 279 278 278 277 277 277 277 276 275 273 270 270 270 269 270 270 271 273 274 273 272 270 269 269 269 269 269 268 269 270 271
235 233 236 249 261 270 279 284 290 295 298 299 300 300 301 300 296 295 296 294 292 292 294 293 292 292 293 295 296 298 300 300 301 303 304 304 303 302 301 300 300 299 297 295 294 293 291 290 288 287 285 284 282 281 279 278 277 276 275 276 276 276 274 271 268 266 265 264 265 267 268 270 269 269 269 267 266 269 271 269 266 265 266 266 265
228 236 250 262 269 277 284 288 293 297 299 300 300 300 301 300 299 299 301 300 293 288 288 288 289 290 291 291 292 293 294 296 299 302 302 302 302 301 301 300 300 298 296 296 297 296 294 292 289 286 283 281 279 278 276 274 275 274 272 273 274 274 273 272 270 267 265 264 263 263 264 264 263 263 262 259 259 264 267 266 264 261 259 256 252
234 247 259 268 275 282 288 292 295 297 299 301 302 303 304 304 301 299 301 303 299 290 281 281 285 287 288 288 289 290 291 294 298 300 301 301 301 301 300 299 299 298 297 298 297 295 291 289 286 283 280 278 277 276 275 276 277 275 272 271 272 272 271 271 270 270 271 271 270 270 270 267 262 258 256 254 259 264 266 267 267 263 260 257 256
247 257 266 274 281 286 290 294 297 298 300 301 302 305 308 309 308 304 301 303 303 298 290 285 284 284 285 288 290 292 293 296 297 298 300 301 301 301 301 300 299 298 299 300 297 292 289 288 286 284 283 281 278 277 278 279 277 275 273 272 271 270 269 267 267 268 269 270 270 270 270 268 265 263 263 264 267 267 267 268 266 262 261 260 257
260 267 274 279 284 288 292 295 297 298 301 302 303 305 308 309 310 310 310 308 305 299 293 290 291 289 286 288 293 296 297 298 299 300 301 303 302 302 301 299 299 299 300 300 297 293 292 291 289 288 289 287 285 284 284 283 280 278 276 274 272 270 266 264 265 265 265 266 267 267 267 267 266 267 267 267 268 267 265 266 263 259 257 254 250
268 273 279 282 287 290 292 295 298 298 300 303 305 306 306 304 303 307 310 313 313 309 300 291 294 298 297 293 294 297 299 300 301 302 304 304 303 303 302 300 300 301 302 302 299 296 295 293 290 289 290 289 288 288 288 287 286 286 285 283 283 280 277 275 274 271 267 267 267 268 269 269 269 270 270 270 270 268 268 270 270 269 269 266 264
270 276 282 285 289 293 294 296 298 299 301 303 304 305 303 300 298 299 303 309 314 316 313 307 301 302 304 305 303 301 300 302 304 304 306 306 305 304 304 302 301 302 301 300 297 294 294 292 289 289 289 288 288 288 285 284 282 280 279 278 277 277 278 278 275 270 265 262 261 262 263 265 265 265 265 265 265 265 265 268 269 267 266 265 264
272 278 284 288 291 294 296 298 299 301 303 305 305 304 302 300 298 296 295 297 301 306 308 308 308 307 307 308 310 308 306 305 306 307 308 308 307 307 307 305 304 303 301 296 291 288 288 287 286 286 286 287 288 288 287 287 287 285 284 283 282 283 284 284 282 277 271 265 262 260 258 259 259 259 257 256 256 256 256 258 259 259 257 255 254
276 282 287 290 292 294 295 298 302 304 306 307 306 304 302 300 297 295 294 294 293 293 298 303 308 311 311 311 313 313 312 310 309 309 309 308 308 309 308 304 301 300 297 293 289 286 284 283 281 282 283 282 282 281 280 281 282 282 282 283 284 285 285 284 284 284 281 277 274 271 267 263 261 260 259 257 256 256 257 256 256 258 259 257 254
283 288 290 290 291 293 296 301 305 306 307 307 306 304 302 299 298 296 295 295 295 295 297 301 306 311 313 314 316 316 315 313 310 309 308 307 307 307 303 298 295 294 293 292 290 288 286 284 283 283 284 283 283 282 281 279 279 278 277 276 275 275 275 274 273 273 273 273 273 273 272 270 268 267 265 262 261 262 262 259 258 258 258 257 255
287 288 288 289 292 296 301 305 308 309 308 306 304 303 302 300 299 298 296 296 296 297 298 301 304 306 308 311 315 316 315 315 313 311 310 309 308 304 300 296 293 290 289 291 292 290 289 289 288 287 286 285 284 284 282 281 281 280 279 278 277 276 275 274 273 271 271 271 270 268 267 266 267 267 265 263 263 262 260 260 259 257 255 254 252
286 286 287 290 295 301 305 308 309 309 308 306 303 302 300 299 299 298 297 298 299 298 298 300 301 302 304 308 313 316 315 314 313 311 310 310 308 304 300 297 294 291 290 291 292 290 289 289 289 287 286 284 283 282 281 280 279 279 279 278 278 277 275 273 273 273 273 273 273 272 269 267 266 265 262 260 260 259 259 259 258 257 257 258 258
282 285 289 295 301 305 307 309 309 308 306 304 303 301 298 297 298 299 299 299 299 298 299 299 299 301 305 308 311 313 312 309 308 308 307 307 306 305 302 298 296 295 293 292 291 291 289 289 288 287 286 284 282 282 281 280 278 277 276 276 275 274 274 275 276 276 276 276 277 278 278 278 277 276 273 269 267 265 263 262 259 257 258 258 258
280 286 292 299 305 307 308 307 308 308 306 303 301 300 299 298 298 299 299 299 298 298 299 299 299 302 306 308 309 309 306 303 304 305 305 304 305 305 303 301 300 298 296 294 293 293 292 290 289 288 286 285 284 282 281 279 276 273 271 270 269 270 271 273 274 275 275 276 276 276 278 279 279 278 275 272 270 269 268 267 265 262 260 259 257
283 290 297 304 306 307 307 307 307 307 305 303 302 301 300 300 300 299 298 298 298 298 299 300 301 304 307 308 309 309 305 302 302 303 303 304 304 304 303 303 302 300 298 297 296 295 294 292 290 288 287 286 285 283 280 278 275 271 268 267 266 266 266 266 267 267 268 268 267 266 267 269 270 271 273 274 274 273 271 270 268 264 260 256 252
289 296 303 307 308 307 306 306 307 306 305 305 305 304 302 300 299 299 298 298 299 299 299 300 303 306 307 309 311 310 307 305 304 303 303 304 304 304 304 305 304 302 301 300 298 297 295 293 291 289 287 286 285 283 280 278 276 273 270 267 265 264 263 262 262 262 263 264 265 265 266 268 269 271 273 274 274 273 271 270 270 268 264 259 251
295 302 306 307 307 307 306 307 308 307 308 308 307 306 305 303 301 301 300 300 300 300 300 301 304 306 308 310 312 311 309 307 306 305 305 305 305 304 305 305 305 305 304 303 302 300 297 294 292 291 288 287 286 284 281 279 277 273 270 268 266 266 264 262 261 261 260 262 265 265 264 265 266 266 268 269 272 276 279 279 277 274 270 264 256
298 304 306 306 306 305 306 309 311 310 310 310 309 308 308 307 304 303 302 300 301 302 302 303 304 306 307 309 311 311 309 308 308 307 307 307 306 306 306 307 307 306 306 305 304 303 299 296 294 292 289 288 288 286 284 281 278 274 271 269 267 266 265 265 264 262 258 257 259 262 265 267 267 267 268 271 274 276 275 273 271 268 265 263 258
300 303 303 304 304 305 307 310 311 311 311 310 309 309 309 308 306 305 303 302 302 303 303 304 305 306 307 309 310 310 310 309 309 308 309 308 307 307 308 308 308 308 307 307 306 304 301 298 295 293 290 290 289 288 285 283 280 277 274 270 267 266 265 265 264 262 260 260 263 266 269 268 266 265 266 269 270 270 269 270 272 273 274 274 268
302 302 301 301 302 304 307 309 310 310 311 310 309 308 308 308 308 306 305 304 304 304 304 305 306 307 308 309 310 310 310 310 309 309 310 310 309 309 310 310 309 309 309 308 307 305 303 300 297 295 293 292 291 288 286 285 282 279 276 273 270 267 265 263 261 259 258 258 258 259 260 261 261 263 264 264 264 267 270 276 280 281 281 281 276
302 300 299 300 301 303 306 308 309 309 310 310 309 309 308 308 308 307 306 306 306 305 305 306 307 308 309 310 310 310 311 310 310 310 311 311 311 311 311 311 311 311 310 309 309 307 305 302 301 298 296 294 292 289 288 287 284 281 279 276 273 269 265 261 259 256 255 254 252 251 253 255 256 257 258 258 260 264 268 273 276 276 275 278 277
303 300 299 300 301 303 306 307 307 307 309 309 309 309 309 308 307 307 307 307 307 306 306 306 307 309 310 310 311 312 312 311 311 312 312 312 313 313 313 313 313 313 312 311 311 310 308 306 304 302 298 296 293 291 289 288 286 284 281 279 275 271 266 261 257 255 253 251 249 248 250 251 251 254 257 259 262 266 268 270 274 275 273 275 277
299 298 298 299 301 304 306 306 305 307 308 309 308 308 308 308 307 307 308 308 307 307 308 308 309 310 311 311 311 312 312 312 312 313 313 313 314 315 315 314 314 315 315 314 313 312 311 309 308 305 302 299 296 294 292 290 288 285 283 279 276 272 268 263 259 255 252 250 249 248 250 251 252 255 258 259 261 263 263 264 269 269 266 268 271
296 296 297 298 300 303 304 304 306 308 309 309 309 308 307 307 307 308 308 308 307 308 309 310 311 311 312 312 312 313 312 312 313 314 314 315 315 316 316 316 316 316 316 316 315 315 314 312 311 309 307 303 300 298 296 294 291 288 284 280 277 274 270 266 261 257 252 248 246 246 246 247 248 250 252 253 255 256 256 258 262 263 263 268 268